Location: Columbia
(38.9520°N, 92.3340°W)
Time: 16:47:10
(UTC-05:00)

FENGYUN 3A - Visible Passes

Search period start: 24 March 2017 00:00
Search period end: 03 April 2017 00:00
Orbit: 819 x 833 km, 98.4° (Epoch: 23 March)

Date Brightness Start Highest point End Pass type
(mag) Time Alt. Az. Time Alt. Az. Time Alt. Az.
24 Mar 4.3 20:34:39 10° S 20:39:58 58° W 20:45:18 10° NNW visible
25 Mar 3.7 20:15:39 10° SSE 20:21:03 86° WSW 20:26:29 10° NNW visible
26 Mar 3.7 19:56:51 10° SSE 20:02:12 65° ENE 20:07:32 10° N visible
26 Mar 6.4 21:39:51 10° SW 21:42:51 15° W 21:45:52 10° WNW visible
27 Mar 6.0 21:19:36 10° SW 21:23:46 23° W 21:27:57 10° NW visible
28 Mar 5.3 20:59:54 10° SSW 21:04:44 33° W 21:09:36 10° NNW visible
29 Mar 4.6 20:40:32 10° S 20:45:45 50° W 20:51:00 10° NNW visible
30 Mar 3.9 20:21:26 10° S 20:26:49 76° WSW 20:32:14 10° NNW visible
31 Mar 3.6 20:02:34 10° SSE 20:07:57 74° ENE 20:13:20 10° N visible
31 Mar 6.5 21:46:22 10° WSW 21:48:42 13° W 21:51:02 10° WNW visible
01 Apr 6.1 21:25:46 10° SW 21:29:35 20° W 21:33:27 10° NW visible
02 Apr 5.6 21:05:54 10° SSW 21:10:33 29° W 21:15:12 10° NW visible
